Terminal Aerodrome Forecast
Issued by NWS Pocatello, ID

Home | Current Version | Previous Version | Text Only | Print | Product List | Glossary On
Versions: 1 2 3 4 5 6 7 8 9 10 11 12 13 14 15 16 17 18 19 20
000
FTUS45 KPIH 260520
TAFIDA
TAF
KIDA 260520Z 2606/2706 20007KT P6SM SCT100
     FM260900 VRB06KT P6SM SCT025 SCT050
     FM261800 22011KT P6SM VCSH SCT060
     FM262100 22012KT P6SM VCTS BKN060CB
     FM270200 19007KT P6SM SCT060=

USA.gov is the U.S. government's official web portal to all federal, state and local government web resources and services.